GFSSGP_700_temp_273.txt.gz
Temp
10 10 11 10 10 9 9 8 8 8 7 7 7 7 6 6 5 5 5 5 5 5 4 5 5 5 5 5 5 5 5 5 5 5 5 5 5 5 5 5 6 6 5 6 6 7 7 6 7
11 11 10 10 9 9 8 8 8 7 6 6 7 6 6 5 5 5 5 5 5 4 4 4 4 4 4 4 4 4 5 4 4 4 3 3 3 4 4 4 4 4 5 5 5 5 5 6 6
11 10 10 9 9 9 9 8 7 6 6 7 6 6 5 5 5 5 5 4 4 4 4 3 3 3 3 4 4 4 3 3 3 3 3 3 3 3 3 3 3 3 3 3 4 4 5 5 5
10 10 9 9 9 9 8 7 7 7 6 6 6 5 5 5 5 4 4 4 4 3 3 3 3 3 3 3 2 2 2 2 3 3 3 3 3 3 3 3 3 3 3 2 2 3 4 4 5
10 10 9 9 9 8 8 7 7 6 6 5 5 5 4 4 4 4 3 3 3 2 2 2 2 2 2 1 1 1 2 2 2 2 3 3 3 3 3 3 3 3 3 2 2 2 2 2 4
9 10 9 8 8 8 8 7 6 5 5 5 4 4 4 3 3 3 3 2 2 2 2 2 1 1 1 1 1 1 2 2 2 2 2 2 2 2 2 2 2 2 2 2 2 2 2 2 2
9 9 8 8 8 8 7 7 6 6 5 4 4 3 3 3 2 2 2 1 1 2 1 0 -0 0 0 1 1 1 1 1 1 1 1 1 1 1 1 1 1 1 2 2 2 1 1 2 2
9 8 8 8 8 7 7 6 5 4 4 4 3 3 3 2 2 1 1 1 0 0 -0 -0 -0 0 0 0 0 0 0 0 0 0 0 0 0 0 1 1 1 1 1 1 1 2 1 1 1
9 8 8 7 7 7 6 6 5 4 4 3 3 3 2 2 1 1 0 0 -0 -0 -1 -0 -0 -0 0 0 0 -0 -0 -0 -0 -0 -0 -0 -0 -0 0 0 1 1 1 1 1 1 1 1 1
9 8 7 7 7 6 6 5 5 4 4 3 3 2 2 2 1 1 0 -0 -1 -1 -0 -0 -0 -0 -0 -0 -0 -0 -1 -0 -0 -0 -0 -0 0 0 0 0 0 0 1 1 1 1 1 1 1
9 8 8 7 7 6 6 5 4 4 3 3 3 3 2 1 1 0 -1 -1 -1 -0 -0 -0 -0 -0 -0 -0 -1 -1 -0 -0 -0 -0 -0 -0 -0 -0 -0 -0 -1 -0 -0 -0 -0 0 0 1 1
8 8 8 7 7 6 5 5 4 4 3 3 2 2 2 2 1 -0 -1 -1 -1 -1 -1 -1 -1 -1 -1 -1 -0 -0 -0 -1 -1 -1 -0 -1 -1 -1 -1 -1 -1 -1 -1 -1 -1 -1 -1 -0 -0
8 8 7 7 6 6 5 4 4 4 3 3 2 2 2 1 -0 -1 -2 -1 -1 -1 -1 -1 -1 -1 -1 -1 -1 -1 -1 -1 -1 -1 -1 -2 -2 -2 -2 -2 -2 -2 -2 -2 -2 -2 -2 -1 -1
8 7 7 6 6 5 5 4 4 3 3 3 3 2 1 -0 -1 -2 -2 -1 -1 -1 -1 -1 -1 -2 -1 -1 -1 -1 -1 -2 -2 -2 -2 -2 -2 -2 -3 -3 -3 -3 -4 -4 -4 -3 -3 -3 -2
8 7 7 6 5 5 5 4 4 3 3 2 2 1 0 -0 -1 -2 -2 -1 -1 -1 -1 -1 -2 -2 -2 -2 -2 -2 -2 -2 -2 -2 -2 -3 -3 -3 -4 -4 -4 -5 -5 -5 -5 -6 -6 -5 -5
7 7 7 6 5 5 4 4 3 3 2 2 2 1 0 -1 -2 -1 -2 -1 -1 -1 -2 -2 -2 -2 -2 -2 -2 -2 -2 -3 -3 -3 -3 -3 -4 -4 -4 -5 -6 -6 -6 -6 -6 -6 -7 -7 -6
7 7 6 6 5 5 4 4 3 3 2 2 2 1 0 -1 -2 -2 -2 -1 -1 -2 -2 -2 -2 -2 -2 -2 -3 -3 -3 -3 -3 -3 -4 -4 -5 -5 -5 -6 -7 -7 -7 -7 -7 -8 -8 -8 -8
7 7 6 5 5 5 4 4 3 2 2 2 1 1 -0 -2 -2 -2 -2 -1 -2 -2 -2 -2 -2 -3 -2 -3 -3 -3 -3 -3 -4 -4 -4 -5 -5 -6 -6 -7 -8 -8 -8 -8 -9 -9 -10 -10 -10
7 7 6 6 5 5 4 4 2 2 2 1 1 0 -1 -2 -2 -2 -2 -2 -2 -2 -2 -2 -3 -3 -3 -3 -3 -3 -3 -4 -4 -4 -5 -5 -6 -6 -7 -8 -8 -8 -8 -8 -9 -9 -10 -11 -11
7 7 7 6 6 5 5 4 4 3 2 2 1 0 -1 -2 -1 -2 -2 -2 -2 -2 -2 -2 -3 -3 -3 -3 -3 -3 -4 -4 -4 -5 -5 -6 -7 -7 -8 -8 -8 -8 -8 -8 -9 -10 -10 -10 -11
7 7 6 6 5 5 5 6 5 4 3 2 1 -0 -1 -2 -2 -2 -2 -2 -2 -2 -2 -3 -3 -3 -3 -3 -4 -4 -4 -5 -5 -5 -6 -6 -7 -8 -8 -9 -8 -8 -8 -9 -10 -11 -11 -10 -11
7 7 6 6 5 4 4 4 5 4 3 2 1 0 -1 -2 -2 -2 -1 -2 -2 -2 -2 -3 -3 -3 -3 -4 -3 -3 -4 -4 -4 -5 -6 -7 -7 -8 -9 -9 -8 -8 -9 -10 -10 -11 -11 -11 -11
7 7 6 5 4 4 4 2 5 4 4 2 1 -0 -2 -1 -1 -1 -2 -2 -2 -2 -2 -3 -3 -3 -4 -3 -3 -4 -4 -4 -5 -6 -6 -7 -7 -9 -9 -9 -8 -9 -9 -10 -10 -11 -11 -11 -11
7 7 5 5 4 2 4 3 5 5 4 3 1 -1 -1 -1 -1 -1 -1 -2 -2 -2 -3 -3 -3 -3 -3 -3 -4 -4 -4 -4 -5 -6 -6 -7 -7 -8 -8 -9 -9 -9 -9 -10 -11 -11 -11 -11 -11
7 7 5 5 2 2 3 2 7 5 4 2 1 -1 -1 -0 -1 -1 -1 -2 -2 -2 -3 -3 -3 -3 -3 -3 -4 -4 -4 -5 -5 -6 -6 -7 -7 -7 -8 -9 -9 -9 -9 -9 -10 -10 -10 -10 -11
7 6 6 6 2 1 4 5 6 5 4 2 1 -0 -0 -0 -1 -1 -1 -2 -2 -2 -2 -3 -3 -3 -3 -4 -4 -4 -4 -5 -5 -6 -6 -7 -7 -8 -8 -8 -9 -9 -10 -10 -9 -10 -10 -10 -10
6 6 5 5 3 1 4 6 7 5 4 2 1 0 0 0 -0 -1 -1 -1 -2 -2 -2 -3 -3 -3 -3 -4 -4 -4 -5 -5 -5 -6 -6 -7 -7 -7 -8 -8 -8 -9 -9 -10 -10 -9 -10 -10 -10
6 6 5 5 1 3 4 5 8 6 4 3 2 1 1 0 -0 -1 -1 -1 -2 -2 -2 -2 -3 -3 -3 -3 -4 -4 -5 -5 -5 -6 -6 -6 -7 -7 -7 -8 -8 -9 -9 -10 -10 -10 -10 -10 -10
6 6 6 5 4 -2 -2 7 7 6 4 3 2 2 1 0 -0 -0 -1 -1 -2 -2 -2 -2 -3 -3 -3 -3 -4 -4 -4 -5 -5 -6 -6 -6 -7 -7 -7 -8 -8 -9 -9 -10 -10 -10 -10 -10 -10
6 6 6 5 3 3 2 6 7 6 5 4 3 2 1 0 1 0 -0 -1 -1 -2 -2 -2 -3 -3 -3 -3 -3 -4 -4 -4 -5 -5 -6 -6 -7 -7 -7 -8 -8 -8 -9 -9 -9 -10 -9 -10 -10

GFSSGP_700_temp_279.txt.gz
Temp
9 10 10 10 9 9 9 9 8 8 7 7 7 6 6 6 5 5 5 4 4 3 4 4 4 4 4 4 4 4 4 4 4 4 5 4 4 4 4 4 4 4 5 5 5 5 6 6 7
10 10 10 10 10 9 9 8 8 7 7 7 7 6 6 6 5 5 4 4 3 3 3 4 4 4 4 3 3 3 3 3 3 3 3 3 3 3 3 4 4 4 4 4 4 4 4 5 5
10 10 10 10 10 9 8 8 8 7 7 6 6 6 5 5 5 4 4 3 3 3 3 3 3 3 3 3 3 3 2 2 2 2 2 2 3 3 3 3 3 3 3 4 4 4 4 4 4
10 10 10 9 9 9 8 8 8 7 6 6 6 5 5 4 4 4 3 3 3 3 3 3 3 2 2 2 2 1 1 2 2 2 2 2 2 3 3 3 3 3 3 3 3 4 3 4 4
10 10 10 9 9 8 8 8 7 7 6 6 6 5 5 4 4 3 3 3 3 3 3 2 2 2 2 1 1 1 1 1 1 1 2 2 2 2 2 2 2 2 3 2 3 2 2 3 3
9 9 9 9 8 8 8 7 7 6 6 5 5 5 4 3 3 3 3 3 3 2 1 1 1 1 1 1 1 1 1 1 1 1 1 1 2 2 2 2 2 2 2 2 2 2 2 2 2
9 9 9 8 8 8 7 7 7 6 5 5 4 4 4 3 3 3 3 2 2 2 1 0 -0 -0 0 0 0 1 1 1 1 1 1 1 1 1 1 1 1 1 1 2 2 2 2 2 2
9 9 8 8 8 7 7 7 6 6 5 4 4 4 3 3 2 2 2 2 2 1 -0 -0 0 0 0 0 0 0 0 0 0 0 0 -0 -0 -0 0 0 0 1 1 1 1 1 2 2 2
9 8 8 8 7 7 7 6 6 5 4 4 3 3 3 2 2 2 2 2 0 -0 -1 -0 -0 -0 -0 -0 -0 -0 -0 -0 -0 -0 -1 -1 -1 -0 -0 -0 -0 -0 0 0 1 1 1 1 1
9 8 8 8 7 7 6 6 5 4 4 4 3 3 2 2 1 1 2 1 -1 -1 -1 -0 -0 -0 -0 -0 -0 -0 -1 -1 -1 -1 -1 -1 -1 -1 -1 -0 -0 -0 -0 -0 -0 -0 0 0 1
8 8 8 8 7 6 6 6 5 4 4 3 3 2 2 1 1 2 2 -0 -1 -1 -0 -0 -0 -0 -0 -1 -1 -1 -1 -1 -1 -1 -1 -1 -1 -1 -1 -1 -1 -1 -1 -1 -1 -1 -1 -1 -1
8 8 8 7 7 6 6 5 5 4 4 3 3 2 1 1 1 2 1 -0 -0 -0 -0 -0 -1 -1 -1 -1 -1 -1 -1 -1 -1 -2 -1 -1 -1 -1 -1 -1 -1 -1 -2 -2 -2 -2 -2 -2 -2
8 8 8 7 7 6 6 5 5 5 4 3 3 2 1 1 1 1 0 -0 -1 -1 -1 -1 -1 -1 -1 -1 -1 -1 -2 -2 -2 -2 -2 -1 -1 -1 -2 -2 -2 -2 -3 -3 -4 -3 -3 -3 -3
8 8 7 7 7 6 5 5 5 4 4 3 2 2 1 0 1 1 0 -0 -1 -1 -1 -1 -1 -1 -1 -1 -2 -2 -2 -2 -2 -2 -2 -2 -1 -1 -2 -2 -3 -3 -4 -4 -4 -4 -4 -4 -4
8 8 7 7 6 6 6 5 5 4 3 3 2 2 1 0 0 0 -0 -1 -1 -1 -1 -1 -1 -1 -1 -2 -2 -2 -2 -2 -2 -2 -2 -2 -2 -2 -3 -3 -3 -4 -5 -4 -5 -4 -4 -4 -5
8 7 7 7 7 6 5 5 4 4 3 3 2 1 0 0 0 -0 -0 -1 -1 -1 -1 -1 -1 -1 -2 -2 -2 -2 -2 -2 -2 -2 -2 -2 -3 -3 -3 -3 -4 -5 -5 -5 -5 -4 -5 -6 -6
8 7 7 7 6 6 5 5 4 4 3 3 2 1 0 0 0 -0 -1 -1 -1 -1 -1 -1 -1 -2 -2 -2 -2 -2 -2 -2 -2 -2 -2 -3 -3 -3 -3 -3 -5 -5 -5 -6 -6 -5 -5 -6 -7
7 7 7 6 6 6 6 4 4 4 4 3 2 1 0 -0 -0 -0 -1 -1 -1 -1 -1 -1 -2 -2 -2 -2 -2 -2 -2 -2 -3 -3 -3 -3 -3 -3 -3 -4 -5 -6 -6 -6 -6 -6 -7 -7 -7
7 7 7 6 6 6 6 5 4 5 5 4 3 1 0 -0 -0 -0 -1 -0 -1 -1 -1 -1 -2 -2 -2 -2 -2 -2 -2 -3 -3 -3 -3 -3 -3 -4 -4 -5 -6 -6 -6 -6 -7 -7 -8 -9 -9
8 7 7 7 6 6 6 6 6 6 6 5 4 2 0 -0 -0 -0 -0 -0 -0 -1 -1 -1 -1 -1 -2 -2 -2 -2 -2 -3 -3 -3 -3 -3 -4 -4 -5 -6 -6 -7 -7 -7 -8 -8 -8 -9 -9
7 7 7 6 6 6 7 7 7 6 6 5 3 2 0 -0 0 -0 -0 -0 -1 -1 -1 -1 -1 -1 -2 -2 -2 -3 -3 -3 -4 -4 -3 -3 -4 -4 -5 -6 -7 -7 -8 -8 -8 -8 -8 -9 -9
7 7 7 6 6 5 5 6 7 6 6 5 3 1 0 0 1 0 0 -0 -0 -1 -1 -1 -1 -1 -2 -2 -2 -2 -2 -3 -3 -3 -4 -4 -4 -5 -6 -6 -7 -7 -8 -8 -9 -9 -9 -9 -9
7 7 7 6 6 5 5 4 7 6 6 5 4 2 1 1 1 1 -0 0 -0 -0 -1 -1 -1 -1 -1 -2 -2 -2 -2 -3 -3 -4 -4 -4 -5 -5 -6 -6 -7 -8 -8 -9 -9 -9 -9 -10 -10
7 7 7 6 6 5 5 5 7 7 6 5 4 3 2 2 1 1 0 0 -0 -0 -1 -1 -1 -1 -1 -1 -2 -2 -2 -3 -3 -3 -4 -4 -5 -5 -6 -6 -7 -7 -8 -9 -9 -9 -9 -10 -10
7 7 7 7 5 6 4 4 8 7 6 5 4 4 3 2 2 1 1 0 0 -0 -0 -1 -1 -1 -1 -1 -2 -2 -2 -2 -3 -3 -4 -4 -5 -5 -6 -6 -7 -7 -8 -9 -9 -10 -10 -10 -10
6 7 7 7 5 4 5 6 8 7 6 6 5 4 4 3 2 2 1 1 1 0 -0 -0 -1 -1 -1 -1 -1 -2 -2 -2 -3 -3 -4 -4 -5 -5 -6 -6 -7 -7 -8 -9 -9 -10 -10 -10 -10
6 6 6 6 3 2 6 8 8 8 7 6 6 5 4 3 2 2 1 1 1 -0 -0 -1 -1 -1 -1 -1 -1 -2 -2 -2 -3 -3 -4 -4 -5 -5 -6 -6 -7 -7 -8 -8 -9 -9 -9 -10 -10
6 6 6 6 3 5 5 7 9 8 7 7 7 6 4 3 3 2 2 1 1 -0 -1 -1 -1 -1 -1 -1 -2 -2 -2 -2 -2 -3 -3 -4 -4 -5 -6 -6 -6 -7 -7 -8 -8 -9 -9 -10 -10
6 6 6 5 5 3 3 8 9 9 8 7 7 6 5 4 3 3 2 1 1 0 0 -0 -0 -0 -1 -1 -2 -2 -2 -2 -3 -3 -3 -4 -4 -5 -5 -6 -6 -6 -7 -7 -8 -8 -9 -9 -10
6 6 6 5 4 4 3 8 9 9 8 8 7 7 6 4 4 3 2 2 1 1 0 -0 -0 -1 -1 -1 -2 -2 -2 -2 -3 -3 -3 -4 -4 -4 -5 -6 -6 -7 -7 -7 -8 -8 -9 -9 -9

GFSSGP_700_temp_285.txt.gz
Temp
9 10 10 10 8 10 11 9 8 8 8 8 8 7 7 6 6 6 5 5 4 4 4 4 4 4 4 5 5 5 5 5 5 4 4 4 4 4 4 4 4 4 4 4 4 4 5 5 5
9 9 10 9 9 12 10 9 8 8 8 8 7 6 6 7 6 5 5 4 4 4 4 4 5 5 5 5 5 4 4 4 3 3 3 3 3 3 3 4 4 4 4 4 4 4 4 4 5
10 10 10 9 11 12 11 8 9 8 8 7 7 6 6 6 5 5 4 4 4 4 4 4 4 5 5 5 4 4 3 2 2 2 2 2 2 3 3 3 3 3 3 3 3 4 4 4 4
10 10 10 9 11 9 8 7 8 8 7 7 6 6 6 5 5 4 4 4 3 4 4 4 4 4 3 2 2 2 2 2 2 2 2 2 2 2 2 2 2 2 3 3 3 3 3 3 3
10 9 9 10 10 7 7 8 8 7 7 6 6 6 5 5 4 4 3 3 3 4 4 4 3 2 1 1 1 1 1 2 2 2 2 2 2 2 2 2 2 2 2 2 3 3 3 3 3
7 8 10 12 9 7 8 8 7 6 6 6 5 5 5 4 4 4 3 3 3 3 4 3 1 1 1 1 1 1 1 1 1 1 1 1 1 1 2 2 2 2 2 2 2 2 2 3 3
8 8 10 10 9 6 7 7 6 6 6 6 5 3 4 4 4 3 3 3 3 3 2 1 1 1 1 1 1 1 1 1 1 0 1 1 1 2 2 2 2 2 2 2 2 2 3 3 3
9 8 9 8 9 8 8 7 7 6 6 5 5 3 4 4 3 3 2 2 3 3 2 1 1 1 0 0 0 0 0 0 1 1 1 1 1 1 1 1 2 2 2 2 2 3 3 3 3
9 8 10 8 7 7 7 7 6 6 5 5 4 4 4 3 3 2 2 3 3 2 1 1 1 1 0 0 0 0 0 0 0 0 0 0 0 0 1 1 1 2 2 2 2 3 3 3 3
8 8 8 8 8 7 7 6 6 5 5 5 5 4 4 3 2 2 2 2 2 1 1 1 1 1 0 0 0 0 0 0 0 -0 -0 -0 0 0 1 1 1 1 1 1 2 2 2 2 2
9 8 8 8 8 7 7 6 6 5 5 5 5 4 4 3 2 2 2 2 1 1 1 1 1 0 0 0 -0 -0 0 -0 -0 0 0 0 -0 -0 0 0 1 1 1 1 1 1 1 1 1
8 8 8 8 8 7 7 6 6 5 5 5 5 5 3 2 2 1 1 1 1 1 1 1 0 0 0 -0 0 -0 -0 -0 0 0 0 -0 -0 0 0 0 0 1 1 0 0 0 0 -1 -1
8 8 8 8 8 7 7 6 6 6 5 5 5 4 2 2 2 1 1 1 1 1 1 1 0 0 -0 -0 -0 -0 -0 -0 -0 -0 -0 -0 -0 -0 -0 -0 -0 -0 -0 -1 -1 -2 -2 -2 -2
8 8 8 8 7 7 6 6 6 6 5 5 4 3 2 2 1 1 1 1 1 1 1 1 0 -0 -0 -0 -0 -0 -0 -0 -0 -1 -1 -1 -1 -0 -0 -1 -1 -1 -1 -2 -3 -3 -3 -3 -3
8 8 8 8 7 7 6 7 6 6 5 5 4 3 2 2 1 1 1 1 1 1 1 1 0 0 0 0 0 -0 -0 -0 -1 -1 -1 -1 -1 -1 -1 -1 -2 -2 -2 -3 -4 -4 -4 -4 -3
8 8 7 8 7 7 6 6 6 6 6 5 4 4 3 2 2 1 1 1 1 1 1 1 0 0 0 0 -0 -0 -0 -1 -1 -1 -1 -1 -1 -1 -2 -2 -2 -2 -3 -3 -4 -4 -4 -4 -4
8 10 8 7 7 7 7 5 7 6 6 6 4 4 3 2 2 2 2 1 1 1 1 1 0 0 0 0 -0 -0 -1 -1 -1 -1 -1 -1 -2 -2 -2 -2 -2 -3 -3 -4 -4 -5 -5 -5 -5
9 10 8 7 8 7 7 7 7 7 7 6 5 4 3 2 2 2 2 2 1 1 1 0 0 0 0 0 -0 -0 -0 -1 -1 -1 -1 -2 -2 -2 -2 -2 -3 -3 -4 -4 -5 -6 -6 -7 -7
8 7 8 7 8 7 7 6 5 8 8 6 5 4 3 3 3 2 2 2 1 1 1 1 1 1 1 0 -0 -0 -1 -1 -1 -1 -2 -2 -2 -2 -3 -3 -3 -3 -4 -4 -5 -5 -6 -7 -8
8 7 8 7 7 7 5 7 8 8 8 6 5 4 3 3 3 2 2 2 2 1 1 1 1 1 1 0 -0 -0 -1 -1 -1 -1 -2 -2 -2 -2 -3 -3 -3 -4 -4 -5 -5 -6 -6 -7 -8
7 7 7 7 7 8 8 9 9 8 8 7 6 5 5 4 3 3 3 2 2 1 1 1 1 1 1 0 0 -0 -0 -1 -1 -1 -2 -2 -2 -2 -3 -4 -4 -4 -5 -5 -6 -6 -7 -7 -8
7 8 7 7 6 9 8 11 9 9 8 7 6 6 5 4 3 3 3 2 2 2 2 2 2 1 1 1 0 0 -0 -1 -1 -1 -1 -2 -2 -3 -3 -4 -4 -4 -5 -5 -6 -6 -7 -7 -7
6 7 7 7 5 6 7 8 8 9 9 8 7 6 6 5 4 4 3 3 2 2 2 2 1 1 1 1 1 0 -0 -0 -1 -1 -2 -2 -2 -3 -3 -3 -4 -4 -5 -5 -6 -6 -6 -7 -7
7 7 6 7 5 9 8 8 9 9 9 8 8 7 6 5 5 4 4 3 3 2 2 2 2 1 1 1 1 0 -0 -1 -1 -1 -2 -2 -2 -2 -3 -3 -4 -4 -4 -5 -5 -6 -7 -7 -8
7 6 10 10 9 12 8 7 11 10 9 9 8 8 7 6 5 5 4 3 3 2 2 2 2 2 1 1 1 0 -0 -1 -1 -2 -2 -2 -2 -3 -3 -3 -4 -4 -4 -5 -5 -6 -7 -7 -8
6 6 8 9 12 12 8 8 10 10 9 9 8 8 7 6 6 5 4 4 3 3 2 2 2 2 1 1 1 0 -0 -1 -1 -2 -2 -2 -3 -3 -3 -3 -4 -4 -5 -5 -6 -6 -7 -7 -8
7 6 7 6 7 8 11 10 10 10 10 9 9 8 8 7 6 5 5 4 4 3 3 2 2 2 1 1 0 0 -0 -1 -1 -2 -2 -3 -3 -3 -3 -3 -4 -4 -5 -5 -6 -6 -7 -8 -8
7 7 6 6 7 10 13 12 12 11 10 9 9 9 8 8 7 6 5 4 4 3 3 3 2 2 1 1 1 0 -1 -1 -1 -2 -2 -2 -3 -3 -3 -4 -4 -4 -5 -5 -6 -6 -7 -8 -8
7 6 6 6 6 9 11 13 11 10 10 9 9 9 9 8 7 7 6 5 4 4 3 3 3 2 2 1 1 0 -1 -1 -2 -2 -2 -3 -3 -3 -4 -4 -4 -5 -5 -5 -6 -6 -7 -8 -8
6 6 6 6 7 6 6 8 10 10 9 9 9 8 8 8 8 7 6 5 5 4 4 3 3 2 1 1 0 -0 -1 -1 -2 -2 -2 -3 -3 -3 -4 -4 -5 -5 -5 -5 -6 -6 -7 -7 -8

GFSSGP_700_temp_291.txt.gz
Temp
9 9 10 10 10 9 8 7 7 9 8 8 8 8 8 7 7 7 6 6 5 5 4 4 4 4 5 5 5 6 6 5 5 5 4 4 4 3 3 3 3 3 4 4 4 5 5 5 5
9 9 10 10 9 9 7 7 8 8 7 7 8 7 7 7 6 6 5 5 4 4 3 4 4 4 5 5 5 5 4 4 3 2 2 2 3 3 3 3 3 3 3 3 4 4 4 5 5
9 9 10 10 9 9 8 8 8 7 7 7 7 7 6 6 6 5 5 4 4 3 3 4 4 4 5 4 3 3 2 2 2 2 2 2 2 2 3 3 3 2 2 2 2 3 3 4 4
9 9 10 10 9 8 8 8 8 8 8 7 7 6 6 6 5 5 4 4 3 3 3 4 4 4 3 2 2 2 2 2 2 2 2 2 2 2 2 2 2 2 2 2 3 3 3 3 3
9 9 10 9 8 7 8 8 8 8 7 7 6 6 6 5 5 4 3 3 4 3 3 3 3 2 2 2 2 2 2 2 2 2 2 2 1 1 1 2 2 2 2 2 3 3 3 3 3
9 9 9 8 8 7 8 7 7 6 7 6 6 6 5 5 4 3 4 3 3 3 3 3 2 2 2 2 2 2 1 1 1 2 2 2 2 1 1 1 1 2 2 2 2 2 3 3 3
8 8 9 8 8 8 8 7 7 7 7 6 6 6 6 4 4 4 4 3 3 3 3 3 2 2 2 2 2 2 1 1 1 1 1 1 2 2 2 2 2 2 2 2 2 2 3 2 3
9 9 9 8 8 8 8 7 7 6 6 6 6 6 4 5 4 4 4 3 3 3 3 2 2 2 2 2 2 1 1 1 1 1 1 1 1 2 2 2 2 2 2 2 2 2 3 3 3
9 8 8 8 8 8 8 7 7 6 6 6 6 6 5 5 4 4 3 3 3 3 2 2 2 2 2 2 2 1 1 1 1 1 1 1 1 1 2 2 2 2 2 2 2 2 2 2 2
8 8 8 8 8 8 8 7 7 7 6 7 6 5 5 5 4 3 3 3 3 3 2 2 2 2 2 2 2 1 1 1 1 1 1 1 1 1 1 2 1 1 2 2 2 2 2 2 2
8 8 8 8 8 8 7 7 7 7 8 7 6 5 4 4 3 3 3 3 2 2 2 2 2 2 2 2 2 2 2 2 1 1 1 1 1 1 1 2 1 1 1 1 1 2 2 1 1
8 8 8 8 8 8 8 7 7 7 8 8 5 5 4 4 3 3 3 3 3 3 2 2 2 2 2 2 2 2 2 2 2 2 1 1 1 1 1 1 1 1 1 1 1 1 1 1 0
8 8 8 8 8 8 8 7 7 7 8 7 6 5 5 4 3 3 3 3 3 3 3 2 2 2 2 2 2 2 2 2 2 2 1 1 1 1 1 1 1 1 1 1 1 0 0 0 -0
8 8 8 8 8 8 8 7 8 7 7 7 6 5 5 4 3 3 3 3 3 3 3 2 2 2 3 2 2 2 2 2 2 1 1 1 1 1 1 1 0 0 0 0 0 -0 -0 -0 -1
9 9 9 8 8 8 8 8 8 7 7 7 6 5 4 4 4 3 3 3 3 3 3 3 3 3 2 2 2 2 2 2 1 1 1 1 1 1 1 0 0 0 0 -0 -0 -0 -0 -0 -1
8 9 8 9 8 8 8 9 8 8 8 7 6 5 5 4 4 4 4 3 4 3 3 3 3 3 3 3 2 2 2 1 1 1 1 1 0 0 0 0 -0 -0 -0 -0 -1 -0 -0 -0 -1
8 8 8 8 9 8 8 8 9 8 8 7 6 6 5 5 5 4 4 4 4 4 4 3 3 3 3 3 3 2 2 1 1 1 0 0 0 -0 -0 -0 -0 -0 -1 -1 -1 -1 -1 -2 -2
8 8 8 8 8 8 8 9 9 8 8 7 6 6 6 5 5 5 5 5 5 4 4 4 4 4 3 3 3 2 2 1 1 1 0 0 -0 -0 -0 -1 -1 -1 -1 -1 -1 -2 -2 -2 -3
8 8 8 8 8 8 8 10 9 9 9 7 7 7 7 6 6 5 5 5 4 4 4 4 4 4 4 3 3 3 2 2 1 1 0 0 -0 -0 -0 -1 -1 -1 -1 -2 -2 -2 -3 -3 -3
8 8 8 8 8 8 8 10 10 10 9 8 7 7 8 8 7 6 5 5 5 5 5 4 4 4 4 3 3 2 2 1 1 0 0 0 -0 -1 -1 -1 -1 -1 -2 -2 -2 -2 -3 -3 -3
9 8 8 8 8 8 9 11 11 11 10 9 8 8 8 8 8 7 6 6 5 5 5 5 4 4 4 3 3 3 2 1 1 1 0 -0 -0 -1 -1 -1 -2 -2 -2 -2 -2 -3 -3 -4 -5
9 8 8 8 8 8 7 8 11 11 10 10 9 9 8 9 9 8 7 6 6 5 5 5 5 5 4 4 3 2 2 1 1 1 0 0 -0 -1 -1 -1 -2 -2 -2 -3 -3 -3 -4 -5 -5
8 8 8 7 7 7 8 6 11 11 11 11 10 9 9 9 9 8 7 7 6 6 6 5 5 5 4 4 3 2 2 1 1 1 0 0 -0 -1 -1 -1 -2 -2 -3 -3 -3 -4 -5 -5 -6
8 7 7 6 6 5 8 8 11 11 11 11 11 10 10 9 9 8 8 7 7 6 6 5 5 5 4 4 3 2 2 1 1 1 1 0 -0 -1 -1 -1 -2 -3 -3 -3 -4 -4 -5 -6 -6
7 7 6 6 4 5 8 7 11 11 11 11 10 10 10 9 9 8 8 7 7 6 5 5 5 4 4 3 3 2 2 2 1 1 0 -0 -1 -1 -1 -2 -2 -3 -3 -4 -4 -5 -5 -6 -7
7 7 6 7 4 6 8 8 12 11 11 11 10 10 10 10 9 9 8 7 7 6 6 5 5 4 4 3 3 2 2 2 1 1 0 -0 -1 -1 -2 -2 -2 -3 -4 -4 -5 -5 -6 -7 -7
7 7 7 6 6 6 8 10 11 11 11 11 10 10 10 9 9 9 9 8 7 7 6 6 5 5 4 4 3 3 2 2 1 1 0 -0 -1 -1 -2 -2 -3 -3 -4 -4 -5 -5 -6 -7 -7
7 7 6 6 3 5 7 9 11 11 11 10 10 9 9 9 9 9 9 8 8 7 6 6 5 5 4 4 3 3 2 2 1 1 0 -0 -1 -1 -2 -2 -3 -3 -4 -5 -5 -6 -7 -7 -8
7 6 6 6 6 2 2 9 10 10 10 9 9 8 8 8 8 8 8 8 8 8 7 6 5 5 5 4 3 3 2 2 2 1 0 -0 -1 -1 -2 -2 -3 -3 -4 -5 -5 -6 -7 -7 -8
6 6 6 6 6 6 5 8 10 10 9 9 9 8 8 8 7 8 8 8 8 8 7 7 6 5 5 4 4 3 3 2 2 1 0 -0 -1 -1 -2 -2 -3 -4 -4 -5 -6 -6 -7 -7 -8

GFSSGP_700_temp_297.txt.gz
Temp
9 9 9 9 9 9 8 8 8 8 7 7 7 6 6 6 6 6 5 5 5 5 4 4 4 4 4 4 4 4 4 4 3 3 3 3 3 3 3 3 3 3 3 4 5 5 5 6 6
9 9 9 9 9 9 8 8 8 7 7 7 6 6 6 6 6 6 6 5 5 5 4 4 4 4 4 4 4 3 3 3 3 3 3 3 3 3 3 3 3 3 3 3 4 4 5 5 5
9 9 9 9 9 8 8 8 7 7 7 6 6 6 6 6 5 5 5 4 4 4 4 3 3 3 3 3 3 3 3 3 3 3 3 3 3 3 3 3 3 3 3 3 3 3 4 5 5
9 9 9 9 9 8 8 7 7 7 6 6 6 5 5 5 5 5 5 4 3 3 3 3 3 3 3 3 3 3 3 3 3 3 2 2 2 3 3 3 3 3 3 3 3 3 3 4 4
9 9 9 8 8 8 7 7 7 6 6 6 5 5 5 5 5 5 4 4 3 3 3 3 3 3 3 3 3 3 3 3 2 2 2 2 3 3 3 3 3 3 3 3 3 3 3 3 4
9 9 8 8 8 8 7 7 6 6 6 6 5 5 5 5 5 5 5 4 3 3 3 3 3 3 3 3 3 3 3 3 2 2 2 2 2 2 3 3 3 3 3 3 3 3 3 3 3
9 8 8 8 8 7 7 6 6 5 5 5 5 5 5 5 5 5 4 3 3 3 3 3 3 3 3 3 3 3 3 3 3 3 3 2 2 2 2 2 3 3 3 3 3 3 3 3 3
9 8 8 8 7 7 7 6 6 5 6 5 5 5 5 5 5 4 3 3 3 3 3 3 3 3 3 3 3 3 3 3 3 3 3 2 2 2 2 2 2 2 3 3 3 3 3 3 3
9 8 7 7 7 7 6 6 6 6 6 6 6 6 6 5 4 4 4 3 3 3 3 3 3 3 3 3 3 3 3 3 3 3 2 2 2 2 2 3 3 3 3 3 3 3 3 3 3
9 8 8 7 7 7 7 7 6 6 6 6 6 6 6 5 4 4 4 4 4 4 4 4 3 3 3 3 3 3 3 2 2 2 2 2 2 3 3 3 3 3 3 3 3 3 3 2 3
9 9 8 8 8 8 7 7 7 7 6 6 6 6 6 5 4 4 4 4 4 4 4 4 3 3 4 3 3 3 3 3 3 3 3 3 3 3 3 3 3 3 3 3 3 3 3 2 3
9 9 8 8 8 8 8 8 7 7 7 7 6 6 5 5 5 5 4 5 4 5 5 4 4 4 4 3 3 3 3 3 3 3 3 3 3 3 3 3 3 3 3 2 3 2 2 2 2
9 9 9 9 8 8 8 8 8 8 7 7 7 6 6 6 5 5 5 5 5 5 4 4 4 4 4 4 3 3 3 3 3 3 3 2 2 2 2 2 2 2 2 2 2 1 1 1 1
9 8 9 9 8 8 8 8 8 8 8 7 7 6 6 6 6 5 5 5 5 4 4 5 5 4 4 4 4 3 3 3 3 3 3 2 2 2 2 2 2 1 1 1 1 0 0 0 -0
8 8 8 8 8 8 8 9 8 8 8 7 7 6 7 6 6 6 6 5 5 5 5 5 5 4 4 4 4 3 3 3 2 2 2 2 2 2 2 1 1 1 1 0 0 -0 -1 -1 -2
9 9 9 8 8 8 8 9 8 8 8 8 7 7 7 7 7 6 6 6 6 5 5 5 5 4 4 4 3 3 3 3 3 2 2 2 2 1 1 1 1 0 -0 -0 -0 -1 -2 -2 -2
8 8 8 8 8 8 8 9 9 9 9 8 7 8 8 8 7 7 7 6 6 6 5 5 5 5 4 4 3 3 3 3 2 2 2 2 1 1 1 1 0 -0 -0 -0 -1 -1 -2 -2 -3
8 8 8 8 8 8 9 9 9 9 9 8 8 8 8 8 8 8 7 7 6 6 6 6 5 5 4 4 3 3 3 3 3 2 2 1 2 1 1 1 0 -0 -0 -1 -1 -2 -2 -2 -3
8 8 8 8 8 8 9 11 9 10 10 10 9 9 9 9 9 8 8 7 7 6 6 6 5 5 4 4 4 3 3 3 3 2 2 2 1 1 1 0 -0 -0 -0 -1 -1 -2 -3 -3 -4
8 8 8 8 8 8 10 12 11 11 11 10 10 9 9 9 9 8 8 8 8 7 7 6 6 5 5 4 4 3 3 3 3 2 2 2 1 1 0 0 -0 -1 -1 -2 -2 -3 -3 -4 -4
8 8 8 8 9 9 10 13 13 12 12 11 11 10 10 10 9 9 8 8 8 7 7 6 6 5 5 4 4 4 3 3 3 2 2 2 1 1 0 -0 -1 -1 -2 -2 -3 -3 -4 -4 -5
8 8 7 7 8 8 9 9 12 12 12 12 11 11 11 10 10 9 8 8 8 7 7 7 6 6 5 5 4 4 3 3 3 2 2 1 1 1 0 -0 -1 -1 -2 -2 -3 -3 -4 -5 -5
8 8 8 8 7 7 8 8 13 12 12 11 11 11 11 10 10 10 9 8 8 8 7 7 6 6 5 5 4 4 4 3 3 2 2 1 1 0 -0 -0 -1 -1 -2 -2 -3 -3 -4 -5 -6
7 7 8 7 6 5 7 7 12 12 11 11 11 11 10 10 10 10 9 9 8 8 7 7 7 6 5 5 4 4 4 3 3 3 2 2 1 1 -0 -0 -1 -1 -2 -2 -3 -4 -4 -5 -6
7 7 7 5 3 5 7 7 12 11 11 11 10 10 10 10 10 9 9 9 8 8 7 7 7 6 5 5 4 4 4 4 3 3 2 2 1 1 0 -0 -1 -1 -2 -2 -3 -4 -5 -5 -6
7 7 6 6 2 4 7 8 12 11 11 11 10 10 10 9 9 9 9 8 8 8 8 7 6 6 5 5 4 4 4 4 3 3 2 2 1 1 -0 -0 -1 -1 -2 -2 -3 -4 -5 -6 -6
7 7 6 6 4 2 8 9 11 11 11 11 10 9 9 9 9 9 9 8 8 8 8 8 7 6 6 5 5 4 4 3 3 3 2 2 1 0 -0 -1 -1 -1 -2 -2 -3 -4 -5 -5 -6
6 6 6 6 2 4 6 8 11 10 10 10 10 9 9 8 8 8 8 8 8 7 7 7 7 7 6 5 5 4 4 3 3 3 2 2 1 0 -0 -1 -1 -1 -2 -3 -3 -4 -5 -6 -6
7 6 6 6 6 2 0 8 10 10 10 10 9 8 8 8 8 8 8 8 8 7 7 7 7 6 6 5 5 4 4 4 3 3 2 2 1 1 -0 -1 -1 -2 -2 -2 -3 -4 -5 -5 -6
6 6 6 5 5 4 3 6 9 9 9 8 8 8 8 8 8 8 8 8 8 8 7 7 6 6 6 5 5 5 4 4 3 3 2 2 1 1 0 -1 -1 -2 -2 -2 -3 -4 -4 -5 -6